This is the latest recevied weather packets stored in our database for station/object W5CRT. If no packets are shown the sender has not sent any weather packets the latest 10 day(s).
| Time | Temp. | Humidity | Pressure | Rain* | Wind** | Luminosity | Snow |
|---|---|---|---|---|---|---|---|
| 1778027418 | 26.11° C | 62% | 1003.8 hPa | 0 mm | - | 7 W/m² | - |
| 1778027114 | 26.11° C | 62% | 1004.2 hPa | 0 mm | - | 7 W/m² | - |
| 1778026810 | 26.67° C | 61% | 1003.9 hPa | 0 mm | - | 10 W/m² | - |
| 1778026507 | 27.22° C | 60% | 1003.7 hPa | 0 mm | - | 14 W/m² | - |
| 1778026204 | 27.78° C | 61% | 1003.6 hPa | 0 mm | - | 31 W/m² | - |
| 1778025901 | 27.78° C | 69% | 1003 hPa | 0 mm | - | 46 W/m² | - |
| 1778025598 | 27.78° C | 70% | 1003 hPa | 0 mm | - | 7 W/m² | - |
| 1778025296 | 28.33° C | 69% | 1002.9 hPa | 0 mm | - | 8 W/m² | - |
| 1778024993 | 28.89° C | 67% | 1003.1 hPa | 0 mm | - | 25 W/m² | - |
| 1778024690 | 28.89° C | 67% | 1002.9 hPa | 0 mm | - | 54 W/m² | - |
| 1778024387 | 28.89° C | 66% | 1002.9 hPa | 0 mm | - | 73 W/m² | - |
| 1778024085 | 28.89° C | 66% | 1002.7 hPa | 0 mm | - | 75 W/m² | - |
| 1778023782 | 29.44° C | 66% | 1002.6 hPa | 0 mm | - | 90 W/m² | - |
| 1778023480 | 29.44° C | 65% | 1002.6 hPa | 0 mm | - | 157 W/m² | - |
| 1778023177 | 29.44° C | 65% | 1002.8 hPa | 0 mm | - | 126 W/m² | - |
| 1778022874 | 29.44° C | 65% | 1002.6 hPa | 0 mm | - | 166 W/m² | - |
| 1778022572 | 30° C | 64% | 1002.2 hPa | 0 mm | - | 168 W/m² | - |
| 1778022270 | 30.56° C | 62% | 1002.5 hPa | 0 mm | - | 176 W/m² | - |
| 1778021965 | 31.11° C | 61% | 1002.7 hPa | 0 mm | - | 215 W/m² | - |
| 1778021663 | 30.56° C | 62% | 1002.7 hPa | 0 mm | - | 427 W/m² | - |
| 1778021358 | 30.56° C | 63% | 1002.7 hPa | 0 mm | - | 249 W/m² | - |
| 1778021056 | 30.56° C | 63% | 1002.6 hPa | 0 mm | - | 235 W/m² | - |
| 1778020753 | 30.56° C | 61% | 1002.5 hPa | 0 mm | - | 224 W/m² | - |
| 1778020450 | 31.67° C | 60% | 1002.2 hPa | 0 mm | - | 189 W/m² | - |
| 1778020146 | 31.67° C | 58% | 1002.1 hPa | 0 mm | - | 199 W/m² | - |
* Rain latest hour (hover to see other rain measurements)
** Current wind speed in m/s (hover to see current wind gust speed)